| time (UTC) | temp C | wind direction | speed KPH | gust KPH | rain 1hr cm | rain 24hr cm | rain mn cm | humidity % | barometer mb |
| 20260505014527 | 24 | 105 | 0.0 | 9.7 | 0.00 | 0.00 | 0.00 | 64 | 1009.5 |
| 20260505013510 | 24 | 227 | 0.0 | 9.7 | 0.00 | 0.00 | 0.00 | 64 | 1009.4 |
| 20260505012528 | 24 | 151 | 0.0 | 8.0 | 0.00 | 0.00 | 0.00 | 65 | 1009.3 |
| 20260505011528 | 25 | 101 | 0.0 | 4.8 | 0.00 | 0.00 | 0.00 | 65 | 1009.3 |
| 20260505010533 | 25 | 84 | 0.0 | 1.6 | 0.00 | 0.00 | 0.00 | 64 | 1009.4 |
| 20260505005534 | 25 | 84 | 0.0 | 8.0 | 0.00 | 0.00 | 0.00 | 64 | 1009.4 |
| 20260505004547 | 25 | 98 | 1.6 | 4.8 | 0.00 | 0.00 | 0.00 | 64 | 1009.4 |
| 20260505003522 | 25 | 100 | 0.0 | 4.8 | 0.00 | 0.00 | 0.00 | 64 | 1009.4 |
| 20260505002500 | 25 | 112 | 1.6 | 16.1 | 0.00 | 0.00 | 0.00 | 64 | 1009.4 |
| 20260505001503 | 26 | 113 | 1.6 | 16.1 | 0.00 | 0.00 | 0.00 | 63 | 1009.4 |
| 20260504235315 | 26 | 94 | 1.6 | 9.7 | 0.00 | 0.00 | 0.00 | 63 | 1009.4 |
| 20260504234259 | 26 | 121 | 0.0 | 11.3 | 0.00 | 0.00 | 0.00 | 63 | 1009.6 |
| 20260504233308 | 26 | 95 | 1.6 | 11.3 | 0.00 | 0.00 | 0.00 | 62 | 1009.5 |
| 20260504230020 | 27 | 76 | 1.6 | 17.7 | 0.00 | 0.00 | 0.00 | 59 | 1009.9 |
| 20260504224951 | 27 | 104 | 3.2 | 17.7 | 0.00 | 0.00 | 0.00 | 58 | 1009.8 |
| 20260504223934 | 27 | 119 | 1.6 | 14.5 | 0.00 | 0.00 | 0.00 | 59 | 1009.9 |
| 20260504222931 | 27 | 169 | 1.6 | 11.3 | 0.00 | 0.00 | 0.00 | 58 | 1010.1 |
| 20260504220804 | 27 | 239 | 0.0 | 8.0 | 0.00 | 0.00 | 0.00 | 57 | 1010.4 |
| 20260504214605 | 28 | 132 | 1.6 | 4.8 | 0.00 | 0.00 | 0.00 | 55 | 1010.3 |
| 20260504213613 | 28 | 155 | 1.6 | 9.7 | 0.00 | 0.00 | 0.00 | 54 | 1010.5 |
| 20260504212609 | 28 | 333 | 1.6 | 14.5 | 0.00 | 0.00 | 0.00 | 54 | 1010.6 |
| 20260504211602 | 28 | 98 | 1.6 | 14.5 | 0.00 | 0.00 | 0.00 | 56 | 1010.9 |
| 20260504210528 | 28 | 95 | 0.0 | 9.7 | 0.00 | 0.00 | 0.00 | 56 | 1011.1 |
| 20260504205503 | 28 | 72 | 3.2 | 11.3 | 0.00 | 0.00 | 0.00 | 54 | 1011.1 |
| 20260504204428 | 28 | 99 | 1.6 | 11.3 | 0.00 | 0.00 | 0.00 | 53 | 1011.4 |
| 20260504202321 | 28 | 61 | 1.6 | 9.7 | 0.00 | 0.00 | 0.00 | 55 | 1011.7 |
| 20260504201249 | 27 | 140 | 1.6 | 14.5 | 0.00 | 0.00 | 0.00 | 54 | 1011.9 |
| 20260504200242 | 28 | 58 | 1.6 | 14.5 | 0.00 | 0.00 | 0.00 | 53 | 1012.1 |
| 20260504195208 | 27 | 175 | 1.6 | 9.7 | 0.00 | 0.00 | 0.00 | 55 | 1012.2 |
| 20260504193100 | 28 | 150 | 1.6 | 16.1 | 0.00 | 0.00 | 0.00 | 53 | 1012.6 |
| 20260504192049 | 28 | 105 | 1.6 | 16.1 | 0.00 | 0.00 | 0.00 | 50 | 1012.7 |
| 20260504191110 | 28 | 102 | 1.6 | 9.7 | 0.00 | 0.00 | 0.00 | 52 | 1012.8 |
| 20260504190111 | 28 | 69 | 0.0 | 12.9 | 0.00 | 0.00 | 0.00 | 53 | 1013.1 |
| 20260504185058 | 28 | 182 | 1.6 | 12.9 | 0.00 | 0.00 | 0.00 | 52 | 1013.2 |
| 20260504184113 | 28 | 180 | 1.6 | 11.3 | 0.00 | 0.00 | 0.00 | 53 | 1013.2 |
| 20260504183047 | 27 | 185 | 1.6 | 9.7 | 0.00 | 0.00 | 0.00 | 53 | 1013.4 |
| 20260504182029 | 27 | 173 | 1.6 | 14.5 | 0.00 | 0.00 | 0.00 | 52 | 1013.5 |
| 20260504175839 | 27 | 117 | 1.6 | 8.0 | 0.00 | 0.00 | 0.00 | 52 | 1013.6 |
| 20260504174806 | 27 | 163 | 1.6 | 11.3 | 0.00 | 0.00 | 0.00 | 54 | 1013.7 |
| 20260504173808 | 27 | 276 | 1.6 | 12.9 | 0.00 | 0.00 | 0.00 | 54 | 1013.9 |
| 20260504172801 | 26 | 243 | 1.6 | 19.3 | 0.00 | 0.00 | 0.00 | 55 | 1014.0 |
| 20260504171746 | 27 | 94 | 1.6 | 19.3 | 0.00 | 0.00 | 0.00 | 55 | 1014.2 |
| 20260504170748 | 26 | 148 | 1.6 | 19.3 | 0.00 | 0.00 | 0.00 | 56 | 1014.4 |
| 20260504150200 | 23 | 155 | 3.2 | 12.9 | 0.00 | 0.00 | 0.00 | 63 | 1015.5 |
| 20260504130734 | 15 | 71 | 0.0 | 4.8 | 0.00 | 0.00 | 0.00 | 8 | 1015.3 |
| 20260504100257 | 14 | 107 | 0.0 | 0.0 | 0.00 | 0.00 | 0.00 | 28 | 1015.2 |
| 20260504050544 | 17 | 108 | 0.0 | 0.0 | 0.00 | 0.00 | 0.00 | 66 | 1017.6 |
| 20260504045558 | 17 | 108 | 0.0 | 0.0 | 0.00 | 0.00 | 0.00 | 66 | 1017.6 |
| 20260504044609 | 17 | 108 | 0.0 | 0.0 | 0.00 | 0.00 | 0.00 | 67 | 1017.8 |
| 20260504043536 | 18 | 108 | 0.0 | 0.0 | 0.00 | 0.00 | 0.00 | 66 | 1017.9 |
| 20260504042520 | 18 | 108 | 0.0 | 0.0 | 0.00 | 0.00 | 0.00 | 66 | 1017.8 |
| 20260504041523 | 18 | 108 | 0.0 | 0.0 | 0.00 | 0.00 | 0.00 | 66 | 1017.8 |
| 20260504040450 | 18 | 108 | 0.0 | 0.0 | 0.00 | 0.00 | 0.00 | 64 | 1017.8 |
| 20260504035423 | 19 | 108 | 0.0 | 0.0 | 0.00 | 0.00 | 0.00 | 63 | 1017.8 |
| 20260504034414 | 19 | 108 | 0.0 | 0.0 | 0.00 | 0.00 | 0.00 | 62 | 1017.7 |
| 20260504033350 | 19 | 108 | 0.0 | 0.0 | 0.00 | 0.00 | 0.00 | 62 | 1017.8 |
| 20260504032318 | 20 | 108 | 0.0 | 3.2 | 0.00 | 0.00 | 0.00 | 61 | 1017.8 |
| 20260504031304 | 20 | 96 | 0.0 | 0.0 | 0.00 | 0.00 | 0.00 | 61 | 1017.7 |
| 20260504030310 | 20 | 96 | 0.0 | 3.2 | 0.00 | 0.00 | 0.00 | 60 | 1017.7 |
| 20260504025311 | 20 | 98 | 0.0 | 3.2 | 0.00 | 0.00 | 0.00 | 60 | 1017.5 |
| 20260504024250 | 20 | 223 | 0.0 | 4.8 | 0.00 | 0.00 | 0.00 | 59 | 1017.4 |
| 20260504023240 | 20 | 90 | 0.0 | 3.2 | 0.00 | 0.00 | 0.00 | 59 | 1017.4 |
| 20260504022218 | 20 | 66 | 0.0 | 4.8 | 0.00 | 0.00 | 0.00 | 58 | 1017.4 |
| 20260504021218 | 21 | 109 | 0.0 | 1.6 | 0.00 | 0.00 | 0.00 | 57 | 1017.2 |
| 20260504020219 | 21 | 109 | 0.0 | 0.0 | 0.00 | 0.00 | 0.00 | 57 | 1017.1 |
| 20260504015228 | 21 | 109 | 0.0 | 4.8 | 0.00 | 0.00 | 0.00 | 55 | 1017.1 |